Location: Ellerstadt
(49.4644°N, 8.2615°E)
Time: 05:16:48
(UTC+00:00)

Gbstr 26 Del rocket - Pass Details

Date: 03 March 2021
Orbit: 492 x 1264 km, 51.8° (Epoch: 11 April)

Event Time Altitude Azimuth Distance (km) Brightness Sun altitude
Rises 19:54:12 0° 284° (WNW) 2,924 7.8 -26.5°
Reaches altitude 10° 19:56:19 10° 286° (WNW) 2,108 6.8 -26.8°
Enters shadow 20:01:05 76° 359° (N) 807 3.5 -27.5°
